Zurück zum Katalog

MERIDIAN 6

AktivMilitärHEO
NORAD 38995·PAYLOAD·🇷🇺 Russia

Gestartet Nov 14, 2012 von Plesetsk Cosmodrome

Loading…

Nächste Überflüge (nächste 24 Stunden)

TLE

AktuellSource: Space-Track

Epoche: Sep 13, 2026, 06:42 UTC

1 38995U 12063A   26256.27937459 -.00000555  00000-0  00000-0 0  9999
2 38995  63.7314 342.3406 7373424 227.9931  40.4617  2.00712582101275

Verfolge MERIDIAN 6 in Echtzeit mit AllMySat

Download on the App Store